天目一号 09星 (TIANMU-1 09)

导读

TIANMU-1 09是中国发射的卫星,于北京时间2023年7月20日8点成功发射,它隶属于天目一号星座,该星座主要面向低轨互联网应用等商业航天场景,可提供空间环境感知、通信技术试验等相关服务,是我国低轨卫星网络建设进程中的重要节点,助力我国商业航天产业持续推进。

Basic Information
目录编号:
57401
目录名称:
TIANMU-1 09
国际标识:
2023-101C
轨道中心:
EARTH
卫星名称:
天目一号 09星
卫星全名:
天目一号 09星 (TIANMU-1 09)
卫星状态:
在轨 (已飞行1149 天)
发射日期:
2023-07-20 UTC
国别 :
中国 (CN)
星等 :
--
This satellite is enrolled in the Space Conjunction Data Service (SCDS) and the current flight risk assessment level is: No High Risk
Orbit Information
数据来源 国际轨道数据 AOE轨道数据
星历时间 2026-09-11T21:27:46+0800
7小时前
查看轨道信息
2026-09-05T23:00:00+0800
6天前
查看轨道信息
半长轴 6852.009km 6852.202km
偏心率 0.0003576 0.0003019
轨道倾角 97.246° 97.248°
近地点辐角 162.012° 183.487°
升交点赤经 302.388° 296.593°
平近点角 198.125° 249.309°
近地点 471.421km 471.996km
远地点 476.323km 476.134km
周期 94.078分钟 94.082分钟
每日圈数 15.306502 15.305853
Detailed Information
覆盖范围:
全球
运营商:
中国航天科工集团有限公司
运营商所在国:
中国
制造商(研发单位):
中国航天科工集团有限公司
制造商所在国:
中国
使用方式:
暂无
Satellite Introduction
天目一号气象星座,是由中国航天科工集团落户西部(重庆)科学城西永微电园企业研制,主要用于获取全球大气环境要素信息,建成后可实现全球全天候海洋、大气层、电离层的立体化、一体化探测。该卫星仍在工作。
2D Orbit Map
3D Orbit Map
Orbit Altitude Analysis Chart
Orbit Inclination Analysis Chart
Orbit Comprehensive Analysis Chart
View Comprehensive Chart
Conjunction Data List
Event ID Objects TCA Miss Dist (km) Collision Risk Probability Collision Risk Index (CRI) Action
CDM_260914-053605-740105-845421
2026-09-14T
05:36:19+0000
2.782 km
极远距离
1.339543E-6 低风险 0.38
CDM_260913-073905-740106-380322
2026-09-13T
07:39:26+0000
2.931 km
极远距离
1.293726E-6 低风险 0.37
CDM_260913-183705-740106-248221
2026-09-13T
18:37:07+0000
2.784 km
极远距离
1.271624E-6 低风险 0.37
CDM_260912-032305-740105-904522
2026-09-12T
03:23:47+0000
2.904 km
极远距离
1.253132E-6 低风险 0.37
Miss Distance Evolution Trend with All Objects
Collision Probability Evolution Trend with All Objects